Location: Home
(42.5358°N, 72.7383°W)
Time: 23:56:49
(UTC-05:00)

Vanguard 3 - Pass Details

Date: 29 November 2021
Orbit: 508 x 3260 km, 33.3° (Epoch: 21 January)

Event Time Altitude Azimuth Distance (km) Brightness Sun altitude
Rises 09:43:47 0° 275° (W) 6,262 11.4 20.6°
Reaches altitude 10° 09:49:00 10° 268° (W) 4,795 10.9 21.0°
Maximum altitude 09:59:29 33° 211° (SSW) 2,327 10.2 21.9°
Drops below altitude 10° 10:05:58 10° 149° (SSE) 2,918 12.0 22.4°
Sets 10:08:22 0° 139° (SE) 3,588 11.7 22.5°
